DW9612 Weather Reports


time (UTC)temp
F
wind
direction
speed
knots
gust
knots
rain 1hr
in
rain 24hr
in
rain mn
in
humidity
%
barometer
mb
20260505211538 78 305 2.6 5.2 0.00 0.00 0.00 48 1009.3
20260505210015 77 306 1.7 6.1 0.00 0.00 0.00 52 1009.4
20260505204528 77 267 2.6 6.1 0.00 0.00 0.00 51 1009.5
20260505203033 77 279 2.6 7.8 0.00 0.00 0.00 52 1009.6
20260505201538 76 326 1.7 6.1 0.00 0.00 0.00 54 1009.7
20260505200019 76 315 0.9 7.0 0.00 0.00 0.00 56 1009.7
20260505194523 75 292 2.6 6.1 0.00 0.00 0.00 55 1009.8
20260505193034 75 299 2.6 5.2 0.00 0.00 0.00 57 1009.8
20260505191539 75 331 2.6 5.2 0.00 0.00 0.00 56 1009.8
20260505190024 74 336 3.5 7.0 0.00 0.00 0.00 57 1009.8
20260505184531 74 315 1.7 7.0 0.00 0.00 0.00 57 1009.9
20260505183045 75 327 1.7 7.0 0.00 0.00 0.00 59 1009.8
20260505181536 74 324 1.7 7.8 0.00 0.00 0.00 60 1010.0
20260505180025 73 320 2.6 7.0 0.00 0.00 0.00 60 1009.9
20260505174526 73 317 0.9 4.3 0.00 0.00 0.00 57 1009.8
20260505173030 73 317 0.0 3.5 0.00 0.00 0.00 59 1009.8
20260505171534 71 311 0.0 1.7 0.00 0.00 0.00 61 1009.8
20260505170020 70 308 0.0 4.3 0.00 0.00 0.00 63 1009.8
20260505164521 70 309 1.7 5.2 0.00 0.00 0.00 63 1009.7
20260505163025 70 42 1.7 5.2 0.00 0.00 0.00 63 1009.6
20260505161533 69 165 2.6 5.2 0.00 0.00 0.00 63 1009.6
20260505153022 68 156 0.0 4.3 0.00 0.00 0.00 65 1009.5
20260505151535 67 156 1.7 4.3 0.00 0.00 0.00 66 1009.3
20260505124536 53 155 0.0 0.9 0.00 0.00 0.00 82 1007.8
20260505123031 53 144 0.0 0.0 0.00 0.00 0.00 81 1007.7
20260505121536 53 144 0.0 0.0 0.00 0.00 0.00 81 1007.6
20260505120028 53 144 0.0 0.0 0.00 0.00 0.00 81 1007.5
20260505114525 54 144 0.0 0.0 0.00 0.00 0.00 81 1007.3
20260505113032 54 144 0.0 0.0 0.00 0.00 0.00 80 1007.1
20260505111533 54 144 0.0 0.0 0.00 0.00 0.00 80 1006.9
20260505101527 54 144 0.0 1.7 0.00 0.00 0.00 80 1006.4
20260505100014 54 144 0.0 0.0 0.00 0.00 0.00 79 1006.2
20260505094519 54 144 0.0 0.9 0.00 0.00 0.00 79 1006.2
20260505093032 55 144 0.0 0.0 0.00 0.00 0.00 79 1006.1
20260505091536 55 144 0.0 0.0 0.00 0.00 0.00 79 1006.1
20260505090019 54 144 0.0 0.0 0.00 0.00 0.00 78 1005.9
20260505084541 55 144 0.0 0.0 0.00 0.00 0.00 77 1005.7
20260505083024 55 144 0.0 0.0 0.00 0.00 0.00 76 1005.7
20260505081528 56 144 0.0 0.0 0.00 0.00 0.00 74 1005.6
20260505080015 58 144 0.0 0.0 0.00 0.00 0.00 73 1005.6
20260505074517 59 144 0.0 0.0 0.00 0.00 0.00 73 1005.4
20260505073022 59 144 0.0 4.3 0.00 0.00 0.00 72 1005.5
20260505071525 59 143 0.0 0.0 0.00 0.00 0.00 69 1005.1
20260505070012 61 143 0.0 0.0 0.00 0.00 0.00 67 1004.8
20260505064518 62 143 0.0 2.6 0.00 0.00 0.00 66 1004.6
20260505063027 63 143 0.9 5.2 0.00 0.00 0.00 64 1004.5
20260505061525 64 143 1.7 3.5 0.00 0.00 0.00 61 1004.3
20260505060010 65 143 3.5 7.0 0.00 0.00 0.00 60 1004.2
20260505054521 64 142 4.3 7.8 0.00 0.00 0.00 61 1004.3
20260505053131 64 142 5.2 7.8 0.00 0.00 0.00 62 1004.2
20260505051537 64 139 2.6 4.3 0.00 0.00 0.00 62 1004.1
20260505041540 65 5 1.7 4.3 0.00 0.00 0.00 63 1004.0
20260505040019 65 5 0.9 3.5 0.00 0.00 0.00 64 1003.9
20260505034526 65 5 0.0 0.0 0.00 0.00 0.00 65 1003.7
20260505033025 66 5 0.0 0.0 0.00 0.00 0.00 64 1003.6
20260505031529 68 5 0.0 0.0 0.00 0.00 0.00 63 1003.4
20260505030015 71 5 0.0 0.0 0.00 0.00 0.00 61 1003.3
20260505024518 74 5 0.0 0.9 0.00 0.00 0.00 57 1003.3
20260505023032 75 5 0.9 2.6 0.00 0.00 0.00 54 1003.2
20260505021537 78 5 1.7 2.6 0.00 0.00 0.00 51 1003.2
20260505020023 81 5 0.0 0.0 0.00 0.00 0.00 43 1003.3
20260505014527 84 5 0.0 0.0 0.00 0.00 0.00 46 1003.4
20260505013135 85 5 0.0 0.0 0.00 0.00 0.00 42 1003.6
20260505011610 85 5 0.0 0.0 0.00 0.00 0.00 32 1003.7
20260505010046 84 45 0.0 1.7 0.00 0.00 0.00 34 1003.9
20260505004547 84 45 0.0 1.7 0.00 0.00 0.00 34 1003.9
20260505003053 84 45 0.0 0.0 0.00 0.00 0.00 33 1004.0
20260505001606 84 46 0.0 2.6 0.00 0.00 0.00 30 1004.2
20260505000041 84 46 1.7 2.6 0.00 0.00 0.00 31 1004.2
20260504234547 84 46 0.0 3.5 0.00 0.00 0.00 31 1004.2
20260504233109 85 46 0.0 2.6 0.00 0.00 0.00 31 1004.3
20260504231605 85 46 0.0 2.6 0.00 0.00 0.00 31 1004.4
20260504230051 84 46 0.9 2.6 0.00 0.00 0.00 30 1004.6
20260504224553 84 46 1.7 2.6 0.00 0.00 0.00 30 1004.7
20260504223055 83 46 0.0 3.5 0.00 0.00 0.00 28 1004.9
20260504221559 83 46 0.9 4.3 0.00 0.00 0.00 32 1005.0
20260504220045 82 46 0.0 5.2 0.00 0.00 0.00 32 1005.1
20260504214547 83 46 0.9 4.3 0.00 0.00 0.00 34 1005.5
20260504213047 82 46 1.7 4.3 0.00 0.00 0.00 38 1005.6